Regional Weather Roundup
Issued by NWS

Home | Current Version | Previous Version | Text Only | Print | Product List | Glossary Off
Versions: 1 2 3 4 5 6 7 8 9 10 11 12 13 14 15 16 17 18 19 20 21 22 23 24 25 26 27 28 29 30 31 32 33 34 35 36 37 38 39 40 41 42 43 44 45 46 47 48 49 50

000
ASUS43 KFSD 260202
RWRSD

WEATHER ROUNDUP FOR SOUTH DAKOTA
NATIONAL WEATHER SERVICE SIOUX FALLS SD
800 PM CST SUN JAN 25 2015

NOTE: "FAIR" INDICATES FEW OR NO CLOUDS BELOW 12,000 FEET WITH NO
SIGNIFICANT WEATHER AND/OR OBSTRUCTIONS TO VISIBILITY.


SDZ001>005-009-010-012>017-260300-
NORTHWEST AND NORTH CENTRAL SOUTH DAKOTA

CITY           SKY/WX    TMP DP  RH WIND       PRES   REMARKS
BUFFALO          N/A     39  33  79 W12       29.85F
FAITH            N/A     38  24  57 SW14      29.90F
MOBRIDGE       CLOUDY    35  30  82 SE8       29.88F WCI  29
$$

SDZ012>016-024>037-041>051-057-063-072>074-260300-
SOUTHWEST AND SOUTH CENTRAL SOUTH DAKOTA

CITY           SKY/WX    TMP DP  RH WIND       PRES   REMARKS
RAPID CTY ARPT CLEAR     36  22  56 CALM      29.96R
PIERRE         MOCLDY    34  28  79 S6        29.93F WCI  29
CUSTER         CLEAR     41  29  62 W10       30.02R
PHILIP         CLEAR     36  22  56 CALM      29.95F
PINE RIDGE     MOCLDY    44  32  62 W8        30.01R
WINNER         CLOUDY    39  30  70 SW10      29.97F
$$

SDZ004>011-016>023-039-040-260300-
NORTHEAST SOUTH DAKOTA

CITY           SKY/WX    TMP DP  RH WIND       PRES   REMARKS
ABERDEEN       CLOUDY    31  29  92 S7        29.96F WCI  24
WATERTOWN      CLOUDY    30  28  92 S7        29.96F WCI  23
SISSETON         N/A     25  22  88 S10       29.95F WCI  15
$$

SDZ017-020-022-023-036>040-048>070-260300-
SOUTHEAST SOUTH DAKOTA

CITY           SKY/WX    TMP DP  RH WIND       PRES   REMARKS
SIOUX FALLS    CLOUDY    33  30  88 W6        30.03R WCI  28
HURON          CLOUDY    33  30  88 S9        29.98F WCI  25
MITCHELL       CLOUDY    36  32  85 S6        30.02F
YANKTON        PTCLDY    34  28  80 SW3       30.05F
$$

ABBREVIATIONS USED IN REMARKS
   TC - TEMPERATURE IN CELSIUS
  WCI - WIND CHILL INDEX
   HX - HEAT INDEX
  VSB - VISIBILITY



USA.gov is the U.S. government's official web portal to all federal, state and local government web resources and services.